KD7MPG-3 Weather Reports


Display with metric or nautical units.
time (UTC)temp
F
wind
direction
speed
MPH
gust
MPH
rain 1hr
in
rain 24hr
in
rain mn
in
humidity
%
barometer
mb
20260901134325 60 167 2.0 5.0 0.00 0.00 0.00 85 1020.1
20260901133827 60 144 1.0 5.0 0.00 0.00 0.00 86 1020.1
20260901133321 60 153 1.0 4.0 0.00 0.00 0.00 86 1020.2
20260901132820 60 161 1.0 4.0 0.00 0.00 0.00 86 1020.1
20260901132319 60 162 1.0 4.0 0.00 0.00 0.00 86 1020.3
20260901131820 60 163 1.0 4.0 0.00 0.00 0.00 86 1020.2
20260901131320 60 162 1.0 4.0 0.00 0.00 0.00 86 1020.2
20260901130820 60 161 1.0 5.0 0.00 0.00 0.00 86 1020.2
20260901130317 60 152 1.0 5.0 0.00 0.00 0.00 86 1020.2
20260901125816 60 157 1.0 4.0 0.00 0.00 0.00 86 1020.2
20260901125314 60 159 1.0 4.0 0.00 0.00 0.00 86 1020.2
20260901124813 59 159 1.0 5.0 0.00 0.00 0.00 86 1020.2
20260901124314 59 160 1.0 5.0 0.00 0.00 0.00 86 1020.1
20260901123814 59 171 1.0 4.0 0.00 0.00 0.00 86 1020.1
20260901123310 59 171 1.0 5.0 0.00 0.00 0.00 86 1020.1
20260901122810 59 163 2.0 5.0 0.00 0.00 0.00 86 1020.2
20260901122308 59 160 1.0 5.0 0.00 0.00 0.00 86 1020.1
20260901121808 59 159 1.0 4.0 0.00 0.00 0.00 86 1020.3
20260901121307 59 161 1.0 4.0 0.00 0.00 0.00 87 1020.2
20260901120808 59 157 2.0 6.0 0.00 0.00 0.00 87 1020.2
20260901120304 59 143 1.0 6.0 0.00 0.00 0.00 87 1020.1
20260901115804 59 134 1.0 5.0 0.00 0.00 0.00 87 1020.1
20260901115306 59 178 0.0 2.0 0.00 0.00 0.00 87 1020.1
20260901114804 58 179 0.0 2.0 0.00 0.00 0.00 87 1020.2
20260901114301 58 184 0.0 1.0 0.00 0.00 0.00 87 1020.2
20260901113802 58 184 0.0 1.0 0.00 0.00 0.00 87 1020.2
20260901113259 58 184 0.0 1.0 0.00 0.00 0.00 87 1020.2
20260901112757 58 184 0.0 1.0 0.00 0.00 0.00 87 1020.1
20260901112259 58 183 0.0 1.0 0.00 0.00 0.00 87 1020.1
20260901111757 58 184 0.0 1.0 0.00 0.00 0.00 87 1020.1
20260901111255 58 183 0.0 1.0 0.00 0.00 0.00 87 1020.0
20260901110757 58 184 0.0 2.0 0.00 0.00 0.00 87 1020.1
20260901110255 58 184 0.0 2.0 0.00 0.00 0.00 87 1020.0
20260901105752 58 183 0.0 1.0 0.00 0.00 0.00 88 1020.1
20260901105249 58 184 0.0 1.0 0.00 0.00 0.00 88 1020.0
20260901104751 58 183 0.0 2.0 0.00 0.00 0.00 88 1020.0
20260901104250 57 183 0.0 2.0 0.00 0.00 0.00 88 1020.0
20260901103751 57 184 0.0 2.0 0.00 0.00 0.00 88 1020.0
20260901103247 57 184 0.0 2.0 0.00 0.00 0.00 88 1019.9
20260901102746 57 186 0.0 3.0 0.00 0.00 0.00 88 1019.9
20260901102247 57 186 0.0 3.0 0.00 0.00 0.00 88 1019.8
20260901101746 57 188 0.0 1.0 0.00 0.00 0.00 88 1019.9
20260901101244 57 188 0.0 2.0 0.00 0.00 0.00 88 1019.9
20260901100743 57 188 0.0 2.0 0.00 0.00 0.00 88 1019.9
20260901100240 57 188 0.0 2.0 0.00 0.00 0.00 88 1019.9
20260901095739 57 190 0.0 2.0 0.00 0.00 0.00 88 1020.0
20260901095240 57 190 0.0 0.0 0.00 0.00 0.00 87 1019.9
20260901094746 57 190 0.0 0.0 0.00 0.00 0.00 87 1019.9
20260901094239 57 190 0.0 1.0 0.00 0.00 0.00 87 1020.0
20260901093741 57 190 0.0 1.0 0.00 0.00 0.00 87 1020.0
20260901093241 57 190 0.0 1.0 0.00 0.00 0.00 87 1020.1
20260901092735 57 190 0.0 2.0 0.00 0.00 0.00 87 1020.1
20260901092231 58 190 0.0 2.0 0.00 0.00 0.00 87 1020.0
20260901091725 58 190 0.0 1.0 0.00 0.00 0.00 87 1020.0
20260901091224 58 189 0.0 2.0 0.00 0.00 0.00 87 1019.9
20260901090724 58 190 0.0 3.0 0.00 0.00 0.00 87 1019.8
20260901090223 58 169 1.0 4.0 0.00 0.00 0.00 87 1019.7
20260901085722 58 168 1.0 5.0 0.00 0.00 0.00 87 1019.6
20260901085221 58 167 1.0 5.0 0.00 0.00 0.00 86 1019.6
20260901084723 58 173 1.0 5.0 0.00 0.00 0.00 86 1019.6
20260901084217 58 173 1.0 5.0 0.00 0.00 0.00 86 1019.6
20260901083718 58 160 1.0 5.0 0.00 0.00 0.00 86 1019.5
20260901083218 58 158 0.0 5.0 0.00 0.00 0.00 86 1019.6
20260901082717 59 176 0.0 2.0 0.00 0.00 0.00 86 1019.7
20260901082218 59 176 0.0 2.0 0.00 0.00 0.00 86 1019.6
20260901081718 59 175 0.0 3.0 0.00 0.00 0.00 86 1019.5
20260901081214 59 175 1.0 4.0 0.00 0.00 0.00 86 1019.5
20260901080713 59 175 1.0 4.0 0.00 0.00 0.00 85 1019.6
20260901080213 59 173 1.0 5.0 0.00 0.00 0.00 85 1019.6
20260901075714 59 185 1.0 5.0 0.00 0.00 0.00 85 1019.5
20260901075215 59 155 2.0 5.0 0.00 0.00 0.00 85 1019.5
20260901074714 59 171 1.0 5.0 0.00 0.00 0.00 85 1019.5
20260901074209 59 200 1.0 5.0 0.00 0.00 0.00 85 1019.5
20260901073711 59 173 2.0 5.0 0.00 0.00 0.00 85 1019.5
20260901073209 59 166 1.0 4.0 0.00 0.00 0.00 85 1019.4
20260901072709 60 154 1.0 4.0 0.00 0.00 0.00 85 1019.4
20260901072209 60 158 1.0 3.0 0.00 0.00 0.00 85 1019.4
20260901071711 60 160 1.0 4.0 0.00 0.00 0.00 84 1019.4
20260901071206 60 160 1.0 5.0 0.00 0.00 0.00 84 1019.4
20260901070703 60 165 2.0 7.0 0.00 0.00 0.00 84 1019.4
20260901070204 60 176 2.0 7.0 0.00 0.00 0.00 84 1019.3
20260901065701 60 160 2.0 5.0 0.00 0.00 0.00 84 1019.3
20260901065200 60 234 2.0 5.0 0.00 0.00 0.00 84 1019.3
20260901064701 60 166 2.0 5.0 0.00 0.00 0.00 84 1019.2
20260901064153 60 157 1.0 3.0 0.00 0.00 0.00 84 1019.1
20260901063655 60 152 1.0 5.0 0.00 0.00 0.00 83 1019.0
20260901063153 60 153 1.0 5.0 0.00 0.00 0.00 83 1019.0
20260901062652 61 167 1.0 5.0 0.00 0.00 0.00 83 1019.0
20260901062151 61 231 0.0 2.0 0.00 0.00 0.00 82 1018.9
20260901061652 61 231 0.0 1.0 0.00 0.00 0.00 82 1018.9
20260901061152 61 232 1.0 2.0 0.00 0.00 0.00 82 1018.9
20260901060648 62 232 1.0 4.0 0.00 0.00 0.00 82 1018.9
20260901060148 62 231 1.0 5.0 0.00 0.00 0.00 82 1018.7
20260901055647 62 223 1.0 5.0 0.00 0.00 0.00 81 1018.7
20260901055148 62 219 1.0 4.0 0.00 0.00 0.00 81 1018.8
20260901054647 62 254 2.0 5.0 0.00 0.00 0.00 81 1018.7
20260901054149 62 215 2.0 5.0 0.00 0.00 0.00 81 1018.5
20260901053643 63 243 2.0 4.0 0.00 0.00 0.00 80 1018.4
20260901053145 63 182 1.0 4.0 0.00 0.00 0.00 80 1018.5
20260901052644 63 186 2.0 5.0 0.00 0.00 0.00 79 1018.4
20260901052144 63 208 2.0 5.0 0.00 0.00 0.00 78 1018.3
20260901051643 64 225 2.0 5.0 0.00 0.00 0.00 77 1018.3
20260901051145 64 163 2.0 6.0 0.00 0.00 0.00 77 1018.2
20260901050639 64 179 2.0 6.0 0.00 0.00 0.00 76 1018.2
20260901050139 64 258 2.0 6.0 0.00 0.00 0.00 75 1018.1
20260901045639 65 217 2.0 6.0 0.00 0.00 0.00 74 1017.9
20260901045139 65 205 2.0 5.0 0.00 0.00 0.00 73 1018.0
20260901044639 65 214 2.0 6.0 0.00 0.00 0.00 72 1018.0
20260901044137 66 194 2.0 6.0 0.00 0.00 0.00 71 1017.8
20260901043637 66 192 2.0 6.0 0.00 0.00 0.00 70 1017.8
20260901043138 67 171 2.0 6.0 0.00 0.00 0.00 69 1017.8
20260901042635 67 210 1.0 4.0 0.00 0.00 0.00 69 1017.7
20260901042133 68 227 2.0 7.0 0.00 0.00 0.00 68 1017.6
20260901041632 68 240 3.0 9.0 0.00 0.00 0.00 67 1017.4
20260901041131 68 255 3.0 9.0 0.00 0.00 0.00 67 1017.3
20260901040629 69 263 3.0 9.0 0.00 0.00 0.00 66 1017.2
20260901040127 69 275 2.0 6.0 0.00 0.00 0.00 66 1017.1
20260901035628 69 242 2.0 6.0 0.00 0.00 0.00 65 1017.1
20260901035127 69 212 3.0 7.0 0.00 0.00 0.00 64 1017.0
20260901034628 70 219 2.0 7.0 0.00 0.00 0.00 64 1017.0
20260901034123 70 232 2.0 6.0 0.00 0.00 0.00 63 1016.8
20260901033623 70 267 2.0 7.0 0.00 0.00 0.00 62 1016.7
20260901033121 71 260 3.0 7.0 0.00 0.00 0.00 62 1016.6
20260901032622 71 236 2.0 7.0 0.00 0.00 0.00 61 1016.5
20260901032121 71 275 2.0 5.0 0.00 0.00 0.00 61 1016.4
20260901031622 72 209 3.0 8.0 0.00 0.00 0.00 60 1016.3
20260901031117 72 250 3.0 8.0 0.00 0.00 0.00 59 1016.2
20260901030617 73 254 2.0 7.0 0.00 0.00 0.00 60 1016.2
20260901030115 73 277 2.0 7.0 0.00 0.00 0.00 59 1016.2
20260901025615 74 292 2.0 6.0 0.00 0.00 0.00 58 1016.1
20260901025115 74 305 2.0 6.0 0.00 0.00 0.00 58 1016.1
20260901024616 74 266 2.0 6.0 0.00 0.00 0.00 57 1016.1
20260901024113 75 277 2.0 4.0 0.00 0.00 0.00 57 1016.0
20260901023611 75 279 2.0 4.0 0.00 0.00 0.00 56 1016.0
20260901023112 76 283 2.0 4.0 0.00 0.00 0.00 55 1015.9
20260901022611 76 286 2.0 6.0 0.00 0.00 0.00 55 1016.0
20260901022114 76 279 4.0 11.0 0.00 0.00 0.00 54 1015.9
20260901021610 76 299 5.0 11.0 0.00 0.00 0.00 54 1016.0
20260901021107 77 252 4.0 10.0 0.00 0.00 0.00 54 1016.0
20260901020607 77 236 3.0 8.0 0.00 0.00 0.00 54 1015.9
20260901020108 78 243 4.0 12.0 0.00 0.00 0.00 53 1015.8
20260901015605 79 238 4.0 12.0 0.00 0.00 0.00 52 1015.7
20260901015103 79 268 3.0 7.0 0.00 0.00 0.00 52 1015.7
20260901014604 80 263 3.0 8.0 0.00 0.00 0.00 51 1015.7
20260901014058 81 0 4.0 10.0 0.00 0.00 0.00 50 1015.5
20260901013557 82 346 5.0 10.0 0.00 0.00 0.00 49 1015.6
20260901013057 83 305 5.0 11.0 0.00 0.00 0.00 48 1015.5
20260901012557 85 255 3.0 11.0 0.00 0.00 0.00 46 1015.6
20260901012057 86 257 3.0 9.0 0.00 0.00 0.00 45 1015.6
20260901011558 87 216 3.0 6.0 0.00 0.00 0.00 43 1015.5
20260901011053 88 250 2.0 6.0 0.00 0.00 0.00 41 1015.5
20260901010553 88 246 1.0 4.0 0.00 0.00 0.00 40 1015.6
20260901010054 88 241 1.0 4.0 0.00 0.00 0.00 40 1015.6
20260901005553 88 269 1.0 4.0 0.00 0.00 0.00 39 1015.6
20260901005051 87 144 1.0 4.0 0.00 0.00 0.00 41 1015.6
20260901004551 87 121 0.0 3.0 0.00 0.00 0.00 39 1015.7
20260901004045 87 194 0.0 2.0 0.00 0.00 0.00 40 1015.7
20260901003545 86 265 1.0 7.0 0.00 0.00 0.00 40 1015.9
20260901003045 86 265 1.0 7.0 0.00 0.00 0.00 39 1015.8
20260901002546 87 200 1.0 2.0 0.00 0.00 0.00 40 1015.8
20260901002044 87 201 1.0 4.0 0.00 0.00 0.00 40 1015.9
20260901001545 88 201 1.0 5.0 0.00 0.00 0.00 41 1015.9
20260901001042 88 168 1.0 5.0 0.00 0.00 0.00 41 1015.9
20260901000541 88 131 1.0 4.0 0.00 0.00 0.00 42 1015.9
20260901000044 88 131 1.0 4.0 0.00 0.00 0.00 43 1015.8
20260831235541 88 155 1.0 3.0 0.00 0.00 0.00 42 1015.9
20260831235039 89 127 1.0 3.0 0.00 0.00 0.00 42 1015.9
20260831234539 88 99 1.0 4.0 0.00 0.00 0.00 42 1016.0
20260831234034 88 70 2.0 4.0 0.00 0.00 0.00 42 1016.0
20260831233533 88 78 2.0 5.0 0.00 0.00 0.00 43 1016.1
20260831233033 87 51 1.0 6.0 0.00 0.00 0.00 43 1016.1
20260831232533 88 80 1.0 6.0 0.00 0.00 0.00 42 1016.1
20260831232032 87 164 1.0 6.0 0.00 0.00 0.00 43 1016.1
20260831231534 87 146 1.0 6.0 0.00 0.00 0.00 46 1016.2
20260831231026 87 95 1.0 6.0 0.00 0.00 0.00 46 1016.2
20260831230527 86 101 2.0 6.0 0.00 0.00 0.00 47 1016.2
20260831230027 85 101 2.0 4.0 0.00 0.00 0.00 47 1016.2
20260831225527 85 324 2.0 4.0 0.00 0.00 0.00 47 1016.3
20260831225027 84 232 2.0 5.0 0.00 0.00 0.00 47 1016.3
20260831224528 84 197 2.0 6.0 0.00 0.00 0.00 49 1016.4
20260831224023 84 276 2.0 6.0 0.00 0.00 0.00 48 1016.3
20260831223523 84 274 2.0 4.0 0.00 0.00 0.00 47 1016.5
20260831223024 84 300 2.0 5.0 0.00 0.00 0.00 48 1016.5
20260831222527 84 341 2.0 6.0 0.00 0.00 0.00 48 1016.5
20260831222021 84 305 2.0 6.0 0.00 0.00 0.00 48 1016.5
20260831221522 83 145 1.0 5.0 0.00 0.00 0.00 50 1016.4
20260831221017 83 165 2.0 5.0 0.00 0.00 0.00 52 1016.5
20260831220517 82 211 2.0 6.0 0.00 0.00 0.00 49 1016.7
20260831220014 82 267 2.0 6.0 0.00 0.00 0.00 50 1016.6
20260831215515 82 229 2.0 6.0 0.00 0.00 0.00 50 1016.8
20260831215015 82 226 1.0 4.0 0.00 0.00 0.00 50 1016.7
20260831214515 82 113 1.0 4.0 0.00 0.00 0.00 50 1016.8
20260831214010 81 313 1.0 3.0 0.00 0.00 0.00 52 1017.0
20260831213511 81 315 1.0 3.0 0.00 0.00 0.00 51 1017.0
20260831213011 81 319 1.0 4.0 0.00 0.00 0.00 52 1017.2
20260831212511 80 323 1.0 4.0 0.00 0.00 0.00 53 1017.3
20260831212009 80 200 1.0 4.0 0.00 0.00 0.00 53 1017.3
20260831211508 80 319 1.0 5.0 0.00 0.00 0.00 52 1017.2
20260831211004 80 290 1.0 5.0 0.00 0.00 0.00 53 1017.2
20260831210503 80 298 1.0 4.0 0.00 0.00 0.00 56 1017.4
20260831210003 79 299 1.0 4.0 0.00 0.00 0.00 55 1017.4
20260831205504 79 0 1.0 5.0 0.00 0.00 0.00 55 1017.4
20260831205002 78 70 1.0 5.0 0.00 0.00 0.00 56 1017.4
20260831204503 78 61 1.0 3.0 0.00 0.00 0.00 58 1017.5
20260831204004 77 63 1.0 4.0 0.00 0.00 0.00 59 1017.5
20260831203459 77 28 2.0 6.0 0.00 0.00 0.00 57 1017.6
20260831202958 76 329 2.0 6.0 0.00 0.00 0.00 58 1017.7
20260831202458 76 311 1.0 3.0 0.00 0.00 0.00 58 1017.7
20260831201959 76 311 2.0 4.0 0.00 0.00 0.00 58 1017.8
20260831201459 76 343 1.0 4.0 0.00 0.00 0.00 59 1017.9
20260831200959 76 195 1.0 3.0 0.00 0.00 0.00 60 1017.8
20260831200455 75 196 2.0 6.0 0.00 0.00 0.00 61 1017.8
20260831195956 75 274 2.0 6.0 0.00 0.00 0.00 60 1017.9
20260831195455 75 12 2.0 6.0 0.00 0.00 0.00 60 1017.9
20260831194955 75 302 2.0 3.0 0.00 0.00 0.00 60 1018.0
20260831194454 75 317 2.0 4.0 0.00 0.00 0.00 61 1018.2
20260831193956 75 280 2.0 4.0 0.00 0.00 0.00 60 1018.3
20260831193451 75 277 2.0 4.0 0.00 0.00 0.00 61 1018.3
20260831192950 74 76 1.0 4.0 0.00 0.00 0.00 63 1018.3
20260831192452 74 71 1.0 4.0 0.00 0.00 0.00 64 1018.3
20260831191950 73 44 1.0 4.0 0.00 0.00 0.00 63 1018.5
20260831191452 73 135 1.0 5.0 0.00 0.00 0.00 64 1018.7
20260831190952 72 130 2.0 5.0 0.00 0.00 0.00 66 1018.7
20260831190446 72 132 2.0 4.0 0.00 0.00 0.00 66 1018.7
20260831185947 71 152 2.0 4.0 0.00 0.00 0.00 65 1018.9
20260831185447 71 202 2.0 5.0 0.00 0.00 0.00 66 1018.9
20260831184946 71 329 2.0 6.0 0.00 0.00 0.00 66 1019.0
20260831184446 71 324 2.0 6.0 0.00 0.00 0.00 66 1019.0
20260831183947 71 322 1.0 5.0 0.00 0.00 0.00 67 1019.1
20260831183446 71 15 1.0 4.0 0.00 0.00 0.00 67 1019.1
20260831182946 70 0 1.0 4.0 0.00 0.00 0.00 68 1019.2
20260831182447 70 275 2.0 4.0 0.00 0.00 0.00 68 1019.2
20260831181947 70 276 2.0 7.0 0.00 0.00 0.00 67 1019.1
20260831181446 70 275 1.0 7.0 0.00 0.00 0.00 68 1019.1
20260831180946 69 103 2.0 8.0 0.00 0.00 0.00 70 1019.2
20260831180441 69 109 3.0 8.0 0.00 0.00 0.00 69 1019.2
20260831175940 69 61 2.0 6.0 0.00 0.00 0.00 70 1019.2
20260831175441 68 42 1.0 4.0 0.00 0.00 0.00 71 1019.3
20260831174941 68 329 2.0 5.0 0.00 0.00 0.00 71 1019.5
20260831174440 68 305 2.0 6.0 0.00 0.00 0.00 71 1019.6
20260831173941 67 96 1.0 6.0 0.00 0.00 0.00 72 1019.6
20260831173438 67 67 1.0 5.0 0.00 0.00 0.00 72 1019.7
20260831172937 67 87 1.0 4.0 0.00 0.00 0.00 73 1019.8
20260831172437 66 76 1.0 4.0 0.00 0.00 0.00 75 1019.8
20260831171938 66 313 1.0 4.0 0.00 0.00 0.00 75 1019.8
20260831171434 66 109 2.0 4.0 0.00 0.00 0.00 75 1019.8
20260831170935 65 89 2.0 4.0 0.00 0.00 0.00 76 1019.8
20260831170432 65 49 1.0 4.0 0.00 0.00 0.00 76 1019.8
20260831165930 65 72 1.0 5.0 0.00 0.00 0.00 77 1019.9
20260831165429 64 72 1.0 5.0 0.00 0.00 0.00 77 1020.0
20260831164928 64 78 1.0 4.0 0.00 0.00 0.00 78 1020.0
20260831164428 63 76 2.0 4.0 0.00 0.00 0.00 80 1020.1
20260831163928 63 94 1.0 4.0 0.00 0.00 0.00 81 1020.2
20260831163422 62 98 1.0 4.0 0.00 0.00 0.00 82 1020.2
20260831162922 62 83 1.0 3.0 0.00 0.00 0.00 82 1020.2
20260831162422 61 84 1.0 3.0 0.00 0.00 0.00 83 1020.2
20260831161922 61 71 1.0 6.0 0.00 0.00 0.00 84 1020.3
20260831161422 60 70 1.0 6.0 0.00 0.00 0.00 84 1020.3
20260831160923 60 53 1.0 3.0 0.00 0.00 0.00 85 1020.4
20260831160417 59 79 1.0 3.0 0.00 0.00 0.00 86 1020.3
20260831155916 58 67 0.0 3.0 0.00 0.00 0.00 86 1020.3
20260831155416 58 71 0.0 3.0 0.00 0.00 0.00 87 1020.4
20260831154916 58 71 1.0 3.0 0.00 0.00 0.00 87 1020.3
20260831154416 57 71 2.0 4.0 0.00 0.00 0.00 87 1020.3
20260831153917 57 65 1.0 4.0 0.00 0.00 0.00 87 1020.4
20260831153413 57 26 1.0 3.0 0.00 0.00 0.00 88 1020.4
20260831152912 56 29 1.0 4.0 0.00 0.00 0.00 89 1020.3
20260831152414 56 350 0.0 4.0 0.00 0.00 0.00 89 1020.4
20260831151912 55 9 0.0 3.0 0.00 0.00 0.00 90 1020.3
20260831151409 55 5 0.0 0.0 0.00 0.00 0.00 90 1020.3
20260831150909 54 5 0.0 0.0 0.00 0.00 0.00 91 1020.3
20260831150409 54 9 0.0 0.0 0.00 0.00 0.00 91 1020.4
20260831145906 54 9 0.0 0.0 0.00 0.00 0.00 91 1020.5
20260831145407 53 5 0.0 0.0 0.00 0.00 0.00 92 1020.5
20260831144906 53 9 0.0 0.0 0.00 0.00 0.00 92 1020.5
20260831144403 52 9 0.0 0.0 0.00 0.00 0.00 92 1020.5
20260831143905 52 5 0.0 0.0 0.00 0.00 0.00 92 1020.5
20260831143359 51 10 0.0 0.0 0.00 0.00 0.00 92 1020.4
20260831142858 51 10 0.0 0.0 0.00 0.00 0.00 91 1020.4
20260831142358 51 9 0.0 0.0 0.00 0.00 0.00 91 1020.4
20260831141858 51 5 0.0 0.0 0.00 0.00 0.00 90 1020.3
20260831141358 51 5 0.0 0.0 0.00 0.00 0.00 90 1020.2
20260831140859 50 5 0.0 0.0 0.00 0.00 0.00 90 1020.3
20260831140352 50 5 0.0 0.0 0.00 0.00 0.00 90 1020.4
20260831135851 50 9 0.0 0.0 0.00 0.00 0.00 90 1020.3
20260831135352 50 9 0.0 0.0 0.00 0.00 0.00 90 1020.3
20260831134851 50 5 0.0 0.0 0.00 0.00 0.00 89 1020.4